loading
|

SL-8 DEB *, 3045

Orbit data source: Space-Track

SL-8 DEB *, 3045 is space debris in LEO originally from a launch on Fri, 03 Sep 1965 UTC launched from the Tyuratam Missile And Space Complex (TTMTR). Debris objects in space refer to the collection of defunct objects orbiting the Earth. Examples of debris include non-operational satellites, rocket bodies, and fragments generated from explosions, collisions, or faulty payload assembly.

Loading next visibility...
Loading greatness...
SL-8 DEB * details
Identifier
3045, 1965-070G
Orbit
LEO
Last TLE update2 days ago
Origin
Flag of CISUSAF SSD (CIS)
ManufacturerUnknown
MissionSpacecraft
Bus & MotorUnknown bus, Unknown motor
MassUnknown
Launch date (UTC)
1965-09-03 (59 years ago)
Launch vehicleUnknown
Launch site
Tyuratam Missile And Space Complex (TTMTR)
Object type
Payload
Rocket body
Debris
Shape & HBRUnknown
Radar Cross SectionSmall (<0.1 m²)

Expand to show TLE details & history

TLE from 2 days ago
0 SL-8 DEB *
1 03045U 65070G   24277.00466199 -.00000475  00000-0 -23096-2 0  9997
2 03045  55.4287 132.5239 0290487 334.9638 170.1966 12.44446535611473
Epoch: 2024-10-03T00:06Z
Definitive object data (Epoch: 2024-10-03T00:06:42.795Z)
Latitude27.7064°
Longitude-82.46122°
Altitude1,714.683 km
Speed6.921 km/s
True Right ascension19h 25m 39s
True Declination27° 34' 54"
Sunlit
Object was in daylight at TLE epoch
Predictive object data (real-time)
Latitude52.60753°
Longitude177.02337°
Altitude1,514.051 km
Speed7.105 km/s
Apparent Right ascension09h 14m 22s
Apparent Declination19° 50' 54"
Sunlit
Object is in daylight
Predictive observer data (real-time)
Local Sidereal Time17:50:59
Azimuth311.331° NW
Elevation-13.747°
Doppler factor1
Orbital elements
Apogee1,716.212 km
Perigee1,259.226 km
Semi-major axis7,865.856 km
Eccentricity0.0290487
Inclination55.4287°
RAAN132.5239°
Arg. of periapsis334.9638°
True anomaly170.74376°
Mean anomaly170.1966°
Eccentric anomaly170.4721°
Mean motion3.11117 °/min
BSTAR-0.0023096
Period115.71 mins
No data available
No data available

SL-8 DEB * Visibility forecast

Observer location: 39.9160978°, -105.1181434

SL-8 DEB * is not visible in the next 10 days
Span
Click to sort rows by Start time (UTC) header in descending order
Start Az.
Max El. time (UTC)
Max El. Az.
Max El.
End time (UTC)
End Az.